Vertical_Velocity
-1 -0 -2 -0 -15 -8 -1 -6 -0 -1 -1 2 0 1 0 2 -2 -8 -1 -1 -1 1 2 2 2 2 1 4 3 3 0 -0 0 -2 -1 -1 1 -1 -2 -1 -0 -1 -1 1 2 -2 -0 -0 -0
-0 1 -1 -2 -10 -2 -6 -2 -1 -1 1 1 0 0 -1 0 0 -1 -0 1 0 2 1 -2 -1 4 6 1 1 2 2 3 2 0 -2 -2 -2 0 -0 -2 -1 -1 -2 -2 -1 1 -1 -1 -0
1 -1 -2 -5 -1 -3 -4 -1 -1 -0 1 -1 -1 1 1 1 1 1 3 2 -0 -0 -1 -1 -0 0 -3 3 4 2 2 3 1 3 4 -0 -3 -3 -1 4 -1 -1 -1 -1 -2 8 -0 -0 -1
-1 -0 -2 -7 -1 -3 -1 -0 -0 -1 0 0 1 -1 2 1 2 -1 -3 -0 -1 -1 0 0 2 1 5 10 -1 1 2 -2 1 3 2 2 4 1 -0 -2 -1 2 0 -2 -1 -0 0 0 -1
-2 -1 -3 -1 -2 -1 -0 1 1 -0 0 -0 -0 -2 -1 2 3 -1 -2 -1 0 -1 -1 1 1 3 2 3 7 4 -1 -0 2 -2 1 3 1 3 1 2 -1 -3 1 2 0 -2 1 1 0
-4 -1 -4 -0 -1 -0 -0 1 1 -0 0 -1 -3 -0 -0 1 3 3 0 -3 -3 -0 -2 -4 -2 3 -0 2 2 6 8 3 2 3 1 -1 -1 -0 1 2 1 2 -3 -1 3 0 0 -1 -1
-6 -3 -1 -0 -1 -1 0 0 -1 1 -0 -0 1 -0 -1 -2 -3 4 3 5 1 -1 0 0 -2 -3 -0 -1 1 6 3 9 17 9 5 3 2 3 3 2 2 0 2 -1 -2 4 2 -0 -1
-2 -6 -0 -0 -0 -1 -2 -1 0 -1 -2 0 -0 -1 -3 -0 -0 -4 2 2 1 -0 -2 1 2 1 -3 0 4 1 6 10 10 6 7 9 2 3 8 5 -1 1 -0 1 3 -2 1 1 -0
-1 -7 -0 -1 0 -3 -0 -1 2 2 -1 -1 -2 0 -0 -2 -1 -2 -3 1 4 3 0 -1 -1 -1 -1 -2 -0 2 -0 -3 -2 3 11 7 9 10 5 8 3 2 1 -1 0 3 -0 1 1
-6 -3 -3 -2 -1 -1 -1 -0 -0 -2 -1 -3 -2 4 4 0 -0 -1 -3 -4 -4 -6 -2 6 2 -1 -2 -1 -1 -2 1 0 -6 -8 -5 5 3 3 3 5 8 3 4 9 2 1 2 -1 -1
0 -3 -1 -1 0 -0 -1 -0 -0 0 -2 -1 -0 -5 -3 -3 -2 -1 -1 2 -1 3 -0 -0 5 5 -0 1 1 1 1 0 3 1 -13 3 5 4 1 2 0 1 -0 2 2 4 2 0 0
-1 0 -0 -1 1 0 -0 0 -1 3 -8 0 -0 2 -1 -1 -0 -4 -4 -5 -2 -1 -7 -0 4 1 9 11 10 5 0 6 2 -1 3 4 -0 1 1 0 1 -1 2 -0 4 7 4 1 1
-0 -0 0 0 0 1 2 -2 -4 -8 -1 2 1 3 1 -2 -3 -1 0 2 1 -0 -1 2 7 -2 4 -0 -4 8 -2 -5 -0 1 1 3 -1 -3 -3 0 -0 1 -0 -1 -0 0 6 7 8
0 0 -2 -1 -1 -0 2 -1 -2 -1 1 1 3 0 0 -1 -2 -2 1 -2 -2 -4 -1 -1 1 8 7 -3 -4 4 6 -8 1 -0 0 -0 1 3 0 -2 -1 -0 0 -0 -2 -1 -2 -1 1
1 -3 -2 0 -0 -1 4 -0 -2 1 0 -0 -0 -1 -1 -1 1 -0 0 -5 -5 -2 -0 -1 3 -0 3 1 9 -5 -7 7 0 -13 -1 0 -0 -1 1 2 1 -0 -1 -0 0 -0 -1 -3 -2
-3 -5 -3 -2 -1 -1 -3 -8 -2 1 -0 -4 -3 -1 -1 -0 1 -1 -2 -1 -1 -2 -6 -2 -1 4 6 -10 -4 2 10 -5 3 5 -12 -2 2 -0 -2 -1 2 1 1 -0 -0 -0 -0 -0 -1
-4 -1 -1 -7 -0 -1 -5 -4 -7 2 -0 -5 -0 -2 -1 -1 1 1 -0 -3 -1 -2 -1 0 3 -5 9 8 -1 3 4 7 7 7 -0 -22 6 2 -1 -2 -1 -1 -1 1 1 1 -0 -0 2
-1 -1 -1 -1 -5 -2 -1 -5 -4 -1 -0 0 -2 1 -1 0 -0 -0 -2 -0 0 -2 -0 -2 0 -0 4 6 0 -4 1 2 5 4 10 10 7 1 -2 -1 -1 -1 -2 0 0 -1 2 -0 -1
-0 1 0 -2 -2 1 -0 -1 -5 -3 0 -1 1 -0 -1 -3 0 -2 -2 -0 -3 -2 -1 -2 -6 -0 -3 -2 -5 7 4 6 2 2 1 1 -2 -0 0 -1 -0 1 -1 -1 -1 -0 -1 -0 3
1 0 -2 -3 -0 2 -1 -6 -2 -0 1 1 0 -2 -2 -0 -0 0 0 -1 -3 -4 -3 -2 -1 -4 5 4 4 0 1 -1 -2 -0 -0 -0 -1 -1 -1 1 -1 -0 -1 -0 1 1 -0 -3 1
-0 -0 -0 -1 -2 -1 2 -4 -3 -1 -0 1 -1 -0 1 -0 -0 -1 -0 -1 -3 -3 -1 -2 -1 -1 -2 -1 -1 1 3 -0 -1 1 -2 0 -1 -1 -2 1 -1 -1 -1 -1 -2 -0 1 -3 -2
-0 -0 0 0 -3 -3 -3 -8 -2 -1 0 -1 -1 -1 -1 1 1 0 1 0 -1 1 1 -0 -1 -2 -1 -3 -2 -2 -2 -2 4 -1 1 1 -2 -2 0 0 1 -0 0 -0 -0 -1 -2 1 -3
-3 0 0 -0 0 -1 -1 -5 -12 -0 -1 -1 -1 -0 -0 1 1 0 0 -0 1 1 1 -0 2 2 -1 -2 -2 -2 -5 -1 -1 1 -2 2 3 -1 -2 -0 1 1 0 -1 -2 -0 -1 -0 -0
-0 -2 -1 -1 -1 -3 -1 -4 -8 -2 -2 -0 -0 -1 -1 -1 -1 1 2 -0 0 2 1 -0 -1 1 4 2 1 -1 -1 -3 -3 1 0 2 -1 -1 -1 2 1 0 1 1 -1 -0 1 -1 -1
-5 -5 -5 -9 -7 -6 -0 -1 -12 -1 -0 -0 0 -0 1 1 0 -2 -3 -3 -1 -2 -2 1 1 1 2 2 3 4 1 2 1 -2 -2 -3 -1 -0 1 -0 0 0 -0 0 -0 -0 0 0 -2
1 -3 -6 -3 -2 -4 -2 -4 -13 -1 1 0 0 -0 0 -1 -1 -0 0 1 -1 -1 -1 -2 -3 -1 0 1 -1 0 3 3 -0 3 2 -2 -2 -1 2 -0 -3 -1 -1 0 -1 -2 -1 -0 -0
1 -2 -3 -3 -1 -2 -4 -8 -6 1 1 1 0 -1 1 3 4 3 2 2 2 0 -2 -2 -1 -2 -3 -5 -0 1 -1 -2 0 1 0 -0 0 -1 -1 -1 -2 1 0 0 -0 -2 -1 -0 -1
-1 -4 -8 -4 -3 -1 -4 -2 -6 -0 0 1 1 -0 -5 3 1 2 3 2 0 2 5 4 -1 -0 1 4 2 -3 -4 -2 -1 -2 -2 -0 0 0 -1 0 1 1 -1 -1 -1 -1 -0 -2 1
-2 -0 -1 -5 -2 -3 -1 -10 -5 -3 -2 -1 1 0 1 1 4 -0 2 3 2 2 -2 -0 1 -2 -2 -2 -2 3 5 3 -0 -3 -3 -1 -3 -2 -0 0 -0 -1 0 2 -1 -1 -2 -2 -1
-1 -2 -3 -5 -6 -1 -2 -16 0 -1 -1 -1 1 -0 -1 -1 8 4 2 0 -1 -1 -1 -1 -1 1 1 -1 -1 -4 -3 -1 2 5 4 1 -2 1 0 -0 -1 -1 -1 0 -1 1 -1 -1 -2
Height
1518 1518 1519 1519 1532 1539 1543 1534 1523 1521 1520 1519 1519 1519 1519 1519 1521 1530 1518 1517 1518 1519 1519 1520 1520 1521 1521 1522 1523 1523 1524 1525 1526 1527 1528 1529 1529 1529 1531 1531 1532 1532 1532 1534 1534 1535 1535 1535 1535
1518 1519 1520 1520 1542 1550 1543 1526 1525 1521 1520 1520 1520 1519 1519 1521 1520 1520 1519 1519 1520 1521 1521 1521 1522 1522 1522 1522 1523 1524 1525 1525 1526 1526 1526 1527 1528 1529 1529 1529 1531 1531 1532 1533 1534 1535 1536 1536 1536
1518 1519 1521 1528 1546 1544 1540 1525 1522 1521 1520 1520 1521 1521 1521 1522 1521 1520 1520 1520 1521 1521 1521 1521 1522 1522 1523 1523 1523 1523 1524 1525 1525 1526 1526 1526 1526 1527 1528 1528 1529 1530 1531 1532 1534 1534 1536 1536 1536
1519 1521 1525 1534 1536 1528 1525 1523 1523 1522 1522 1522 1523 1523 1524 1523 1522 1521 1521 1521 1521 1521 1521 1521 1522 1521 1522 1522 1522 1523 1523 1524 1525 1525 1525 1526 1526 1526 1526 1527 1528 1528 1529 1530 1532 1534 1535 1536 1536
1520 1522 1534 1538 1533 1528 1525 1524 1524 1524 1525 1524 1524 1524 1524 1522 1522 1521 1521 1521 1520 1520 1520 1520 1521 1521 1521 1521 1521 1521 1522 1522 1522 1523 1523 1524 1524 1525 1526 1526 1526 1527 1528 1529 1530 1532 1533 1535 1536
1521 1524 1541 1543 1536 1528 1527 1526 1526 1528 1527 1526 1525 1524 1523 1522 1522 1522 1522 1521 1520 1519 1519 1520 1520 1520 1519 1518 1519 1519 1520 1520 1521 1521 1521 1522 1523 1524 1524 1525 1525 1526 1526 1528 1529 1530 1532 1533 1534
1524 1532 1540 1539 1537 1530 1530 1528 1529 1528 1527 1526 1526 1525 1523 1522 1521 1522 1521 1521 1520 1519 1518 1518 1518 1518 1517 1517 1516 1516 1515 1516 1518 1518 1519 1520 1521 1522 1522 1523 1524 1524 1525 1526 1527 1529 1530 1531 1533
1526 1530 1537 1538 1540 1533 1531 1530 1529 1528 1527 1526 1526 1525 1522 1521 1520 1520 1520 1519 1518 1518 1517 1516 1516 1515 1515 1514 1513 1512 1512 1511 1512 1512 1515 1517 1518 1519 1520 1521 1521 1522 1524 1525 1525 1526 1528 1530 1531
1528 1540 1545 1536 1536 1533 1531 1530 1527 1527 1526 1526 1525 1524 1523 1520 1518 1518 1517 1517 1516 1516 1515 1514 1513 1513 1512 1512 1511 1510 1509 1508 1508 1508 1510 1513 1515 1516 1518 1518 1519 1520 1522 1523 1524 1525 1526 1527 1529
1530 1543 1538 1534 1533 1533 1531 1530 1528 1527 1525 1523 1522 1522 1520 1519 1517 1515 1514 1513 1513 1512 1512 1511 1510 1510 1510 1510 1509 1509 1507 1506 1506 1506 1508 1509 1510 1512 1514 1516 1516 1517 1519 1520 1522 1523 1524 1525 1526
1533 1538 1533 1531 1532 1531 1530 1529 1527 1527 1525 1522 1521 1519 1518 1517 1515 1514 1512 1510 1508 1508 1507 1507 1506 1506 1506 1507 1507 1507 1507 1506 1506 1506 1508 1511 1511 1511 1512 1513 1514 1515 1516 1517 1520 1521 1521 1522 1523
1534 1532 1532 1531 1530 1530 1528 1527 1526 1524 1521 1521 1520 1518 1516 1514 1513 1511 1509 1506 1504 1502 1501 1502 1503 1503 1503 1504 1505 1505 1506 1506 1506 1507 1509 1509 1509 1510 1511 1512 1512 1513 1514 1515 1516 1518 1519 1519 1520
1533 1532 1531 1530 1529 1528 1527 1525 1526 1520 1520 1520 1519 1517 1515 1513 1511 1509 1506 1502 1499 1497 1496 1497 1499 1499 1500 1501 1504 1504 1504 1506 1506 1506 1508 1508 1508 1509 1510 1510 1510 1511 1512 1513 1513 1514 1515 1516 1516
1533 1532 1530 1528 1527 1527 1526 1524 1525 1519 1519 1519 1518 1515 1513 1512 1509 1506 1503 1500 1498 1496 1493 1493 1495 1497 1498 1499 1501 1504 1503 1503 1504 1505 1506 1506 1507 1507 1507 1507 1508 1508 1509 1509 1510 1511 1511 1511 1512
1532 1532 1528 1529 1528 1526 1524 1523 1523 1518 1517 1516 1515 1513 1513 1511 1508 1505 1503 1501 1500 1497 1495 1493 1494 1496 1498 1501 1502 1502 1501 1502 1502 1503 1504 1505 1505 1504 1504 1505 1505 1505 1505 1505 1505 1506 1507 1507 1508
1534 1536 1542 1529 1528 1525 1526 1525 1516 1516 1516 1513 1512 1512 1511 1509 1506 1504 1503 1502 1500 1498 1497 1496 1495 1495 1496 1498 1499 1500 1500 1500 1501 1502 1502 1503 1502 1501 1501 1501 1501 1501 1501 1501 1501 1501 1501 1502 1503
1543 1543 1542 1537 1529 1528 1526 1525 1513 1514 1514 1511 1510 1511 1510 1507 1505 1503 1502 1502 1501 1499 1498 1497 1495 1495 1494 1494 1497 1498 1498 1499 1499 1500 1501 1501 1501 1497 1497 1497 1497 1497 1497 1497 1496 1496 1496 1496 1496
1546 1547 1545 1542 1530 1527 1527 1520 1513 1511 1513 1509 1509 1510 1508 1505 1504 1503 1502 1502 1500 1499 1498 1496 1494 1493 1494 1494 1495 1496 1498 1498 1497 1497 1498 1498 1494 1493 1493 1494 1494 1493 1493 1493 1492 1491 1491 1490 1490
1544 1547 1545 1538 1532 1529 1525 1520 1510 1506 1507 1507 1509 1509 1507 1505 1503 1502 1502 1500 1498 1498 1497 1495 1494 1493 1494 1495 1495 1496 1495 1495 1494 1493 1493 1492 1491 1491 1491 1491 1490 1489 1489 1488 1487 1486 1485 1485 1486
1545 1544 1541 1536 1532 1535 1527 1518 1510 1504 1505 1507 1508 1508 1508 1506 1503 1502 1500 1499 1498 1497 1497 1496 1495 1495 1495 1495 1495 1493 1493 1493 1492 1491 1491 1490 1489 1489 1489 1488 1486 1486 1484 1484 1482 1481 1480 1480 1481
1542 1540 1540 1541 1537 1533 1533 1518 1512 1508 1507 1508 1509 1509 1508 1505 1502 1500 1499 1498 1497 1497 1496 1495 1495 1494 1495 1494 1493 1492 1491 1490 1490 1490 1489 1488 1488 1487 1486 1485 1483 1482 1481 1479 1478 1477 1477 1476 1475
1539 1538 1538 1543 1546 1544 1535 1537 1518 1512 1509 1509 1509 1508 1506 1505 1504 1502 1499 1497 1496 1496 1495 1494 1493 1493 1493 1492 1491 1491 1490 1488 1488 1487 1486 1486 1485 1484 1483 1481 1480 1478 1477 1476 1475 1474 1473 1473 1471
1539 1538 1541 1542 1546 1547 1540 1553 1522 1515 1511 1510 1509 1508 1508 1506 1504 1502 1500 1499 1497 1495 1494 1493 1492 1491 1490 1490 1489 1488 1487 1486 1484 1483 1483 1482 1482 1481 1480 1479 1477 1475 1474 1472 1470 1470 1470 1469 1468
1538 1538 1543 1549 1551 1554 1535 1544 1524 1518 1510 1510 1509 1509 1508 1505 1503 1502 1500 1499 1498 1496 1494 1492 1491 1490 1489 1487 1486 1485 1484 1483 1481 1480 1479 1478 1478 1477 1476 1475 1474 1472 1471 1469 1467 1465 1465 1464 1464
1541 1546 1558 1553 1562 1547 1540 1540 1522 1511 1509 1509 1510 1509 1507 1504 1502 1500 1499 1498 1496 1495 1493 1492 1490 1489 1488 1486 1484 1483 1481 1480 1478 1477 1475 1474 1473 1473 1472 1471 1469 1468 1467 1465 1463 1461 1460 1459 1459
1547 1548 1567 1565 1570 1560 1544 1535 1517 1510 1510 1509 1509 1508 1507 1505 1503 1501 1499 1497 1496 1494 1492 1490 1489 1488 1486 1484 1482 1480 1479 1476 1475 1473 1471 1470 1469 1468 1467 1466 1465 1464 1463 1461 1459 1457 1456 1454 1453
1548 1555 1551 1558 1566 1574 1540 1526 1512 1509 1510 1510 1509 1509 1507 1506 1504 1502 1500 1498 1496 1494 1492 1491 1490 1487 1485 1483 1480 1478 1476 1474 1471 1469 1467 1465 1464 1462 1461 1460 1459 1458 1457 1456 1454 1452 1451 1449 1447
1544 1549 1559 1568 1566 1551 1537 1532 1518 1511 1510 1510 1509 1509 1507 1506 1505 1503 1501 1498 1497 1495 1492 1490 1488 1487 1485 1482 1479 1476 1473 1471 1468 1465 1463 1461 1459 1457 1455 1454 1452 1451 1451 1450 1448 1447 1445 1443 1442
1551 1552 1555 1561 1560 1559 1566 1530 1507 1505 1505 1507 1508 1507 1504 1503 1503 1502 1500 1498 1496 1494 1491 1489 1486 1483 1481 1478 1476 1473 1470 1467 1464 1462 1459 1456 1454 1451 1449 1447 1445 1444 1443 1443 1441 1440 1439 1437 1436
1542 1543 1549 1563 1559 1561 1565 1533 1501 1501 1501 1504 1506 1504 1502 1499 1500 1500 1498 1496 1494 1491 1489 1486 1484 1481 1478 1475 1472 1469 1466 1462 1460 1457 1453 1451 1448 1445 1443 1441 1438 1437 1436 1436 1434 1433 1432 1430 1428